{"data":{"norad_id":65656,"intl_designator":"2025-211E","name":"STARLINK-35344","alt_names":[],"object_type":"PAYLOAD","status":"ACTIVE","operator":null,"country":"US","launch_date":"2025-09-19","launch_site_code":"AFWTR","launch_vehicle":null,"mission":null,"orbit_class":"UNKNOWN","rcs_meters":null,"size_class":null,"mass_kg":null,"dimensions":null,"purposes":["comms"],"wikipedia_slug":null,"has_3d_model":false,"image_url":null,"decayed_at":null,"tle_current":{"epoch":"2026-05-25T01:51:24.719616Z","epoch_age_seconds":71450,"freshness":"FRESH","line1":"1 65656U 25211E   26145.07736944 -.00001552  00000+0 -10356-3 0  9999","line2":"2 65656  97.4493 188.9596 0001377 121.0725 239.0637 15.05640955 38537","mean_motion":15.05640955,"eccentricity":0.0001377,"inclination_deg":97.4493,"raan_deg":188.9596,"arg_perigee_deg":121.0725,"mean_anomaly_deg":239.0637,"bstar":-0.00010356,"rev_number":3853,"period_min":95.640331462689,"perigee_km":548.5849578475,"apogee_km":550.49283979004,"semimajor_km":6927.6758988188,"source":"CELESTRAK","updated_at":"2026-05-25T13:38:20.888438Z"}}}